Tracking 19817 objects as of 19-Aug-2019
HD Live streaming from Space Station
objects crossing your sky now

COSMOS 2251 DEB

Track COSMOS 2251 DEB now!
10-day predictions


NORAD ID: 33915
Int'l Code: 1993-036DU
Perigee: 718.8 km
Apogee: 886.7 km
Inclination: 74.0 °
Period: 100.8 minutes
Semi major axis: 7173 km
RCS: 0.0508 m2 (small)
Launch date: June 16, 1993
Source: Commonwealth of Independent States (former USSR) (CIS)
Launch site: PLESETSK MISSILE AND SPACE COMPLEX (PKMTR)

Note: This is SATELLITE DEBRIS
aabbcc
Your satellite tracking list
Your tracking list is empty




NASA's NSSDC Master Catalog

Two Line Element Set (TLE):
1 33915U 93036DU  19230.81905175 +.00000148 +00000-0 +64251-4 0  9998
2 33915 074.0445 273.1802 0116993 208.9602 272.1700 14.28841631547526
Source of the keplerian elements: AFSPC